SL-16 DEB, 23708

Orbit data source: Space-Track

SL-16 DEB, 23708 is space debris in LEO originally from a launch on Tue, 31 Oct 1995 UTC launched from the Tyuratam Missile And Space Complex (TTMTR). Debris objects in space refer to the collection of defunct objects orbiting the Earth. Examples of debris include non-operational satellites, rocket bodies, and fragments generated from explosions, collisions, or faulty payload assembly.

Loading next visibility...
Identifier
23708, 1995-058E
Orbit
LEO
Country
Flag of CISCIS
Related business
Manufacturer
Yuzhnoe
Mission
Spacecraft
Bus & Motor
SEP MOTOR COVER, Unknown motor
Mass
~0 kg wet, ~1 kg dry
Launch date (UTC)
1995-10-31 (31 years ago)
Launch vehicle
Unknown
Launch site
Tyuratam Missile And Space Complex (TTMTR)
Object type
Payload
Rocket body
Debris
Shape & HBR
CONE, 0.2 m
Radar Cross Section
Medium (>0.1 m² and <1 m²)

Expand to show TLE details & history
Last TLE update: 18 hours ago

TLE from 18 hours ago
0 SL-16 DEB
1 23708U 95058E   26266.58061979  .00000063  00000-0  94633-4 0  9992
2 23708  71.0502 208.6511 0182828 112.0956  61.6828 13.76745346551652
Epoch: 2026-09-23T13:56Z
TLE epoch observation values (Epoch: 2026-09-23T13:56:05.549Z)
Latitude
4.04054°
Longitude
175.81582°
Altitude
915.527 km
Speed
7.426 km/s
True Right ascension
01h 49m 04s
True Declination
4° 01' 01"
Sunlit
Object was in full shadow at epoch
Visualization orbit readout
Latitude
Unknown
Longitude
Unknown
Altitude
Unknown
Speed
Unknown
Apparent Right ascension
Unknown
Apparent Declination
Unknown
Sunlit
N/A
Visualization observer readout
Local Sidereal Time
01:18:50
Azimuth
Unknown
Elevation
Unknown
Doppler factor
Unknown
Orbital elements
Apogee altitude
1,107.817 km
Perigee altitude
839.003 km
Semi-major axis
7,351.547 km
Eccentricity
0.01828
Inclination
71.0502°
RAAN
208.6511°
Arg. of periapsis
112.0956°
True anomaly
63.54702°
Mean anomaly
61.6828°
Eccentric anomaly
62.61292°
Mean motion
3.4433 °/min
Orbital period
104.55 mins
BSTAR
0.000094633
Loading maneuver chart data...
Computing Atmospheric mass density...
Loading historical data...
Loading historical data...
Loading historical data...
Loading historical data...
Loading historical data...
Loading historical data...
Loading historical data...

Documentation

Showing up to 5 results
|